Palmer, AK

7:55 PM AKDT on May 24, 2018 (GMT -0800)
Palmer Municipal

Weather History for PAAQ - March, 2013

Change the Weather History Date:

Tuesday, March 5, 2013

  Actual Average Record
Temperature  
Mean Temperature 26 °F -  
Max Temperature 34 °F 29 °F 47 °F (1955)
Min Temperature 19 °F 12 °F -21 °F (1992)
Degree Days  
Heating Degree Days 38    
Moisture  
Dew Point 17 °F    
Average Humidity 68    
Maximum Humidity 85    
Minimum Humidity 52    
Precipitation  
Precipitation 0.00 in - - ()
Sea Level Pressure  
Sea Level Pressure 30.13 in    
Wind  
Wind Speed 3 mph (NNE)    
Max Wind Speed 10 mph    
Max Gust Speed -    
Visibility 10 miles    
Events      
Averages and records for this station are not official NWS values.
T = Trace of Precipitation, MM = Missing Value Source: NWS Daily Summary

Daily Weather History Graph

Daily Weather History Graph

Search for Another Location

Airport or City:

Astronomy

Mar. 05, 2013 Rise Set
Actual Time 7:43 AM AKST 6:32 PM AKST
Civil Twilight 7:00 AM AKST 7:16 PM AKST
Nautical Twilight 6:09 AM AKST 8:07 PM AKST
Astronomical Twilight 5:17 AM AKST 9:00 PM AKST
Moon 4:30 AM AKST (3/5) 10:57 AM AKST (3/5)
Length of Visible Light 12h 16m
Length of Day
10h 48m
Last Quarter, 39% of the Moon is Illuminated
Mar 5
Last Quarter
Mar 11
New
Mar 19
First Quarter
Mar 27
Full
Apr 2
Last Quarter

Hourly Weather History & Observations

Time (AKST) Temp. Windchill Dew Point Humidity Pressure Visibility Wind Dir Wind Speed Gust Speed Precip Events Conditions
12:53 AM 28.9 °F 19.8 °F 14.0 °F 54% 30.27 in 10.0 mi NNW 10.4 mph - N/A   Overcast
1:53 AM 25.0 °F - 15.1 °F 66% 30.27 in 10.0 mi Calm Calm - N/A   Mostly Cloudy
2:53 AM 21.0 °F 16.2 °F 16.0 °F 81% 30.27 in 10.0 mi ENE 3.5 mph - N/A   Clear
3:53 AM 21.0 °F - 16.0 °F 81% 30.27 in 10.0 mi Calm Calm - N/A   Mostly Cloudy
4:53 AM 21.0 °F - 17.1 °F 85% 30.25 in 10.0 mi Calm Calm - N/A   Scattered Clouds
5:53 AM 19.9 °F - 16.0 °F 85% 30.24 in 10.0 mi Calm Calm - N/A   Clear
6:53 AM 21.9 °F 17.2 °F 17.1 °F 82% 30.22 in 10.0 mi NNE 3.5 mph - N/A   Partly Cloudy
7:53 AM 21.9 °F 17.2 °F 17.1 °F 82% 30.20 in 10.0 mi NNE 3.5 mph - N/A   Clear
8:53 AM 24.1 °F 19.7 °F 10.9 °F 57% 30.17 in 10.0 mi NW 3.5 mph - N/A   Mostly Cloudy
9:53 AM 26.1 °F - 12.9 °F 58% 30.18 in 10.0 mi Calm Calm - N/A   Clear
10:53 AM 25.0 °F - 17.1 °F 72% 30.16 in 10.0 mi Calm Calm - N/A   Scattered Clouds
11:53 AM 27.0 °F - 17.1 °F 66% 30.13 in 10.0 mi Calm Calm - N/A   Clear
12:53 PM 30.0 °F 26.5 °F 18.0 °F 61% 30.12 in 10.0 mi South 3.5 mph - N/A   Clear
1:53 PM 33.1 °F 30.0 °F 17.1 °F 52% 30.10 in 10.0 mi South 3.5 mph - N/A   Scattered Clouds
2:53 PM 34.0 °F - 19.0 °F 54% 30.08 in 10.0 mi Calm Calm - N/A   Scattered Clouds
3:53 PM 34.0 °F 31.0 °F 19.0 °F 54% 30.06 in 10.0 mi SSE 3.5 mph - N/A   Partly Cloudy
4:53 PM 32.0 °F - 18.0 °F 56% 30.04 in 10.0 mi Calm Calm - N/A   Clear
5:53 PM 28.9 °F 25.2 °F 18.0 °F 64% 30.03 in 10.0 mi SE 3.5 mph - N/A   Clear
6:53 PM 28.0 °F - 18.0 °F 66% 30.02 in 10.0 mi Calm Calm - N/A   Clear
7:53 PM 24.1 °F - 18.0 °F 77% 30.02 in 10.0 mi Calm Calm - N/A   Mostly Cloudy
8:53 PM 26.1 °F 19.4 °F 18.0 °F 71% 30.00 in 10.0 mi North 5.8 mph - N/A   Overcast
9:53 PM 24.1 °F 19.7 °F 16.0 °F 71% 29.99 in 10.0 mi North 3.5 mph - N/A   Overcast
10:53 PM 24.1 °F 16.0 °F 17.1 °F 75% 29.99 in 10.0 mi North 6.9 mph - N/A   Mostly Cloudy
11:53 PM 24.1 °F 17.0 °F 15.1 °F 69% 29.99 in 10.0 mi North 5.8 mph - N/A   Clear